Aérodrome :
LOGIN :

S'inscrire | Disclaimer

   EN    FR    IT 

 










Légende :    VFR   VFR Marginal   IFR   IFR Intensif   IFR Très Intensif
Visi : 
Plafond : 
>= 8 km
>= 3000ft
5 à 8 km
1000 à 3000 ft
1500m à 5 km
500 à 1000 ft
800 à 1500m
200 à 500 ft
< 800m
< 200 ft
Symboles :   Orages  Brouillard  Fortes neiges  Fortes précipitations  Vent > 20 kt
SIGMETs :   Divers  Orages  Givrage  Turbulence  Onde Orograph.  Cendres Volcan.






- Altitude de l'aérodrome : 325 ft
- Code IATA : POX


LFPT - Pontoise

DERNIER METAR :
  • 270800Z AUTO 24011KT 9999 BKN008/// BKN012/// BKN031/// ///TCU 02/01 Q0986

METARs EXPIRÉS :
  • 270730Z AUTO 23011KT 5000 -SN BR OVC007/// ///TCU 01/00 Q0986
  • 270700Z AUTO 22013KT 9999 OVC008/// ///TCU 02/01 Q0986
  • 270630Z AUTO 23011KT 9999 -SN BKN010/// OVC018/// ///TCU 02/01 Q0986
  • 270600Z AUTO 22014KT 9999 -RA BKN017/// BKN022/// ///TCU 02/01 Q0986
  • 270530Z AUTO 23011KT 9999 FEW011/// SCT033/// ///TCU 02/01 Q0986

TAF N/A
ATIS : +33 1 30 30 52 08



MET'MAP, la Météo Aéronautique d'un coup d'oeil ! - Copyright ORBIFLY Décembre 2007 - Disclaimer

ORBIFLY MET'MAP TEAM :

Programmation & Développement : Alexandra Zaïnal
Sur une idée originale de : Baudouin d'Aumeries
Assistance à la programmation : Marc-Olivier Méhu
Soutien technique & logistique : Manuel Goepfert

Contact : metmap@orbifly.com




SOURCES & CREDITS :

   NOAA